Weather observations for the past three days for
New Braunfels National Airport
Imperial (Metric)
Date Time (cdt) Wind (mph) Vis. (mi.) Weather Sky Cond. Temperature (ºF) Relative Humidity Wind Chill (°F) Heat Index (°F) Pressure Precipitation (in)
Air Dwpt 6 hour altimeter (in) sea level (mb) 1 hr 3 hr 6 hr
Max. Min.
14 07:51 SW 5 6.00 Fog/Mist BKN012 78.8 77 94% 83 30.14 0.0
14 05:51 S 6 10.00 Partly Cloudy SCT012 SCT019 79 77 94% 83 30.12 1019.2
14 04:51 SW 7 10.00 Mostly Cloudy SCT011 BKN018 79 77 94% 83 30.12 1019.0
14 03:51 S 5 10.00 Overcast BKN009 OVC013 80.1 77 90% 86 30.12 1019.0
14 02:51 SE 6 10.00 Overcast OVC008 79 77 94% 83 30.14 1019.5
14 01:51 SE 6 9.00 Overcast OVC003 78.1 75.9 93% 81 30.15 1020.0
14 00:51 S 7 10.00 Overcast OVC005 78.1 75 82 75.9 90% 81 30.15 1020.2
13 23:51 S 3 10.00 Mostly Cloudy BKN008 75.9 72 88% 76 30.16 1020.3
13 22:51 SE 6 10.00 Fair CLR 75.9 71.1 85% 76 30.15 1020.1
13 21:51 E 6 10.00 Fair CLR 78.1 72 82% 80 30.15 1020.0
13 20:51 E 7 10.00 A Few Clouds FEW019 78.1 72 82% 80 30.15 1020.0
13 17:51 S 3 10.00 Fair CLR 80.6 69.8 70% 84 30.12 0.0
13 16:51 SE 17 G 30 10.00 Light Rain FEW028 SCT044 BKN065 84.2 75.2 74% 92 30.15 0.0
13 15:51 Calm 10.00 Partly Cloudy SCT025 SCT043 82.4 77 84% 91 30.15 0.0
13 14:51 S 6 10.00 Light Rain FEW041 84.2 75.2 74% 92 30.16 0.0
13 13:51 S 8 10.00 Mostly Cloudy BKN045 84.2 75.2 74% 92 30.16 0.0
13 12:51 S 6 6.00 Light Rain BKN026 BKN040 BKN050 82.4 75.2 79% 89 30.17 0.0
13 11:51 SE 6 10.00 Partly Cloudy FEW015 SCT022 87.8 77 70% 100 30.18 0.0
13 10:51 SE 6 10.00 Mostly Cloudy BKN014 BKN021 82.4 77 84% 91 30.18 0.0
13 09:51 E 3 10.00 Mostly Cloudy SCT009 SCT011 BKN027 80.6 75.2 84% 86 30.18 0.0
13 07:51 Vrbl 5 10.00 Overcast SCT008 BKN012 OVC017 77 73.4 89% 78 30.15 0.0
13 06:51 Calm 10.00 Overcast BKN011 BKN022 OVC027 75.2 73.4 94% 74 30.14 0.0
13 05:51 Calm 10.00 Overcast BKN011 OVC023 75.9 73.9 94% 75 30.13 1019.2
13 04:51 Calm 10.00 Overcast OVC012 75 73 94% 73 30.12 1018.9
13 03:51 Calm 10.00 Overcast BKN015 OVC021 75 73 94% 73 30.11 1018.8
13 02:51 Calm 10.00 Partly Cloudy FEW014 SCT022 73.9 73 97% 30.12 1018.9
13 01:51 E 3 10.00 A Few Clouds FEW018 73.9 72 94% 30.12 1019.0
13 00:51 Calm 10.00 Partly Cloudy FEW015 SCT022 75 73 82.9 73.9 94% 73 30.12 1019.2
12 23:51 Calm 10.00 Fair CLR 73.9 72 94% 30.11 1018.8
12 22:51 S 3 10.00 Fair CLR 75 73 94% 73 30.11 1018.7
12 21:51 S 5 10.00 Fair CLR 75.9 73 91% 76 30.09 1018.0
12 20:51 SE 8 10.00 Fair CLR 77 72 85% 78 30.08 1017.6
12 19:51 S 7 10.00 Fair CLR 80.1 72 76% 84 30.07 1017.4
12 17:51 SE 16 G 25 10.00 Fair CLR 86 73.4 66% 93 30.06 0.0
12 16:51 SE 12 G 20 10.00 Fair CLR 87.8 71.6 59% 94 30.06 0.0
12 15:51 SE 12 10.00 Fair CLR 86 69.8 59% 91 30.06 0.0
12 14:51 SE 8 10.00 Fair CLR 84.2 73.4 70% 91 30.08 0.0
12 13:51 S 12 10.00 Mostly Cloudy BKN030 BKN035 84.2 75.2 74% 92 30.09 0.0
12 12:51 SE 15 10.00 Mostly Cloudy FEW033 BKN047 BKN060 80.6 73.4 79% 85 30.1 0.0
12 11:51 S 9 10.00 A Few Clouds FEW026 FEW031 84.2 73.4 70% 91 30.09 0.0
12 09:51 Calm 10.00 Fair CLR 80.6 75.2 84% 86 30.1 0.0
12 08:51 Calm 10.00 Clear SKC 78.8 75.2 89% 82 30.08 0.0
12 07:51 Calm 10.00 Fair CLR 77 75.2 94% 78 30.05 0.0
12 06:51 Calm 10.00 Fair CLR 75 73 75.9 73 94% 73 30.04 1016.3
12 05:51 Calm 10.00 Fair CLR 73.9 72 94% 30.02 1015.7
12 04:51 Calm 10.00 Fair CLR 73.9 72 94% 30.01 1015.3
12 03:51 Calm 10.00 Fair CLR 73.9 73 97% 30.02 1015.4
12 02:51 SW 3 10.00 Fair CLR 75 73 94% 73 30.02 1015.5
12 01:51 S 5 10.00 Fair CLR 75.9 73 91% 76 30.03 1015.8
12 00:51 S 5 10.00 Fair CLR 75.9 73 91 75.9 91% 76 30.03 1016.0
11 23:51 S 6 10.00 Fair CLR 75.9 73 91% 76 30.03 1016.1
11 22:51 SW 5 10.00 Fair CLR 78.1 72 82% 80 30.03 1015.9
11 21:51 S 9 10.00 Fair CLR 81 73 77% 86 30.01 1015.2
11 20:51 S 8 10.00 Fair CLR 84 72 67% 90 30 1014.9
11 17:51 SE 13 10.00 Fair CLR 91.4 68 46% 96 29.97 0.0
11 16:51 SE 9 10.00 Fair CLR 91.4 69.8 49% 97 29.98 0.0
11 14:51 E 8 10.00 Clear SKC 91.4 68 46% 96 30 0.0
11 13:51 NE 5 10.00 Clear SKC 91.4 73.4 56% 100 30.02 0.0
11 12:51 Calm 10.00 Fair CLR 89.6 71.6 55% 96 30.04 0.0
11 11:51 SE 3 10.00 Fair CLR 86 73.4 66% 93 30.05 0.0
11 10:51 E 6 10.00 Fair CLR 82.4 73.4 74% 88 30.05 0.0
11 09:51 SE 3 10.00 Fair CLR 78.8 73.4 84% 82 30.06 0.0
11 08:51 Calm 10.00 Fair CLR 75.2 73.4 94% 74 30.04 0.0
Date Time (cdt) Wind (mph) Vis. (mi.) Weather Sky Cond. Air Dwpt Max. Min. Relative Humidity Wind Chill (°F) Heat Index (°F) altimeter (in) sea level (mb) 1 hr 3 hr 6 hr
6 hour
Temperature (ºF) Pressure Precipitation (in)